Tracking 20628 objects as of 6-Apr-2020
HD Live streaming from Space Station
objects crossing your sky now

ACRUX 1

Track ACRUX 1 now!
10-day predictions
ACRUX 1 is classified as:


NORAD ID: 44369
Int'l Code: 2019-037E
Perigee: 441.7 km
Apogee: 458.0 km
Inclination: 45.0 °
Period: 93.4 minutes
Semi major axis: 6820 km
RCS: Unknown
Launch date: June 29, 2019
Source: Australia (AUS)
Launch site: Rocket Lab Launch Complex (RLLC)

Uplink (MHz):
Downlink (MHz): 437.200
Beacon (MHz):
Mode: 9600bps GMSK
Call sign: CQ
Status: Active

aabbcc
Your satellite tracking list
Your tracking list is empty




NASA's NSSDC Master Catalog

Two Line Element Set (TLE):
1 44369U 19037E   20096.60418839 +.00004781 +00000-0 +12093-3 0  9990
2 44369 045.0121 164.0012 0011938 118.3586 241.8504 15.41144235043336
Source of the keplerian elements: AFSPC